STARLINK-5857, 55946

Orbit data source: Space-Track

STARLINK-5857, 55946 is a payload satellite owned by SpaceX/Seattle (US) in LEO that was launched on Fri, 17 Mar 2023 UTC via an FALCON 9 launch vehicle from the Air Force Western Test Range (AFWTR). Payload-class satellites include a variety of spacecraft equipped with specific instruments for various scientific and technological missions. These include communications satellites like Starlink; space stations such as the ISS; scientific satellites like the Hubble; Earth observation satellites from companies like Planet Labs, Umbra, and HawkEye 360; GPS; miniature CubeSats for education and research; and military/defense satellites.

Loading next visibility...
Identifier
55946, 2023-037AJ
Orbit
LEO
Country
Flag of USUS
Related business
Manufacturer
SpaceX/Seattle
Mission
Operational Commercial Communications
Bus & Motor
STARLINK, Unknown motor
Mass
305 kg wet, ~290 kg dry
Launch date (UTC)
2023-03-17 (3 years ago)
Launch vehicle
FALCON 9
Launch site
Air Force Western Test Range (AFWTR)
Object type
Payload
Rocket body
Debris
Shape & HBR
Box + 1 Pan, 10.1 m
Radar Cross Section
11.087 m², Large (>1 m²)

Expand to show TLE details & history
Last TLE update: 3 days ago

TLE from 3 days ago
0 STARLINK-5857
1 55946U 23037AJ  26170.90876248 -.00000712  00000-0 -51849-4 0  9997
2 55946  69.9997  26.6471 0003017 266.9992  93.0822 14.98326442179284
Epoch: 2026-06-19T21:48Z
TLE epoch observation values (Epoch: 2026-06-19T21:48:37.078Z)
Latitude
Longitude
151.36163°
Altitude
574.604 km
Speed
7.574 km/s
True Right ascension
01h 46m 35s
True Declination
0° 00' 00"
Sunlit
Object was in daylight at epoch
Visualization orbit readout
Latitude
Unknown
Longitude
Unknown
Altitude
Unknown
Speed
Unknown
Apparent Right ascension
Unknown
Apparent Declination
Unknown
Sunlit
N/A
Visualization observer readout
Local Sidereal Time
21:39:04
Azimuth
Unknown
Elevation
Unknown
Doppler factor
Unknown
Orbital elements
Apogee altitude
572.111 km
Perigee altitude
567.919 km
Semi-major axis
6,948.152 km
Eccentricity
0.0003
Inclination
69.9997°
RAAN
26.6471°
Arg. of periapsis
266.9992°
True anomaly
93.11672°
Mean anomaly
93.0822°
Eccentric anomaly
93.09946°
Mean motion
3.74748 °/min
Orbital period
96.06 mins
BSTAR
-0.000051849
Loading maneuver chart data...
Computing Atmospheric mass density...
Loading historical data...
Loading historical data...
Loading historical data...
Loading historical data...
Loading historical data...
Loading historical data...
Loading historical data...

Documentation

Showing up to 5 results
|